Weather reports worldwide

Advertisment
Wilkes-Barre/Scrant PA, United States of America (72513): temperature & dewpoint: 19.05.2019 18:00:00 - 25.05.2019 18:00:00 (EDT)Wilkes-Barre/Scrant PA, United States of America (72513): wind speed & gusts: 19.05.2019 18:00:00 - 25.05.2019 18:00:00 (EDT)Wilkes-Barre/Scrant PA, United States of America (72513): wind direction: 19.05.2019 18:00:00 - 25.05.2019 18:00:00 (EDT)Wilkes-Barre/Scrant PA, United States of America (72513): reduced air pressure: 19.05.2019 18:00:00 - 25.05.2019 18:00:00 (EDT)Wilkes-Barre/Scrant PA, United States of America (72513): visibility: 19.05.2019 18:00:00 - 25.05.2019 18:00:00 (EDT)Wilkes-Barre/Scrant PA, United States of America (72513): precipitation: 19.05.2019 18:00:00 - 25.05.2019 18:00:00 (EDT)
Date & Time tt [°C] td [°C] ff [km/h] ff [kn] fx [km/h] fx [kn] dd ppp [hPa] vv [km] rr [mm]
25.05.2019 18:00:00 21,1 13,3 18 10 - - S 1016,8 16 -
25.05.2019 17:00:00 22,2 13,9 15 8 - - S 1017,2 16 0,0
25.05.2019 16:00:00 21,7 12,8 16 9 - - SSW 1017,6 16 -
25.05.2019 15:00:00 21,1 12,2 11 6 - - - 1018,5 16 -
25.05.2019 14:00:00 21,7 12,8 9 5 - - - 1019,5 16 0,0
25.05.2019 13:00:00 18,9 12,2 11 6 - - - 1020,9 16 -
25.05.2019 12:00:00 19,4 11,7 11 6 - - - 1021,7 16 -
25.05.2019 11:00:00 18,9 11,7 13 7 - - SW 1021,9 16 0,0
25.05.2019 10:00:00 16,7 11,1 5 3 - - WSW 1022,1 16 -
25.05.2019 09:00:00 15,6 10,6 5 3 - - - 1022,4 16 -
25.05.2019 08:00:00 15,0 10,0 8 4 - - NNW 1021,8 16 0,0
25.05.2019 07:00:00 11,7 8,9 11 6 - - ENE 1021,9 16 -
25.05.2019 06:00:00 10,0 8,3 11 6 - - ENE 1021,5 16 -
25.05.2019 05:00:00 10,0 8,3 8 4 - - ESE 1021,4 16 0,0
25.05.2019 04:00:00 10,6 8,3 8 4 - - E 1020,7 16 -
25.05.2019 03:00:00 11,1 8,3 8 4 - - E 1020,7 16 -
25.05.2019 02:00:00 11,1 8,9 11 6 - - E 1021,2 16 0,0
25.05.2019 01:00:00 12,2 8,9 11 6 - - E 1021,5 16 -
25.05.2019 00:00:00 12,2 9,4 0 0 - - N 1021,3 16 -
24.05.2019 23:00:00 15,0 9,4 8 4 - - E 1020,6 16 0,0
24.05.2019 22:00:00 16,1 9,4 9 5 - - NE 1020,5 16 -
24.05.2019 21:00:00 17,2 10,0 15 8 - - NE 1020,2 16 -
24.05.2019 20:00:00 18,9 10,0 15 8 - - N 1019,2 16 0,0
24.05.2019 19:00:00 21,1 11,1 16 9 - - N 1018,5 16 -
24.05.2019 18:00:00 21,7 11,7 21 11 - - N 1017,6 16 -
24.05.2019 17:00:00 22,2 11,7 22 12 - - N 1017,2 16 0,0
24.05.2019 16:00:00 21,7 11,1 22 12 - - N 1016,7 16 -
24.05.2019 15:00:00 21,1 11,1 28 15 - - N 1016,6 16 -
24.05.2019 14:00:00 20,0 10,6 24 13 - - NNW 1016,5 16 0,0
24.05.2019 13:00:00 18,9 10,6 21 11 - - N 1016,4 16 -
24.05.2019 12:00:00 18,3 10,0 22 12 48 26 NNW 1016,2 16 -
24.05.2019 11:00:00 17,8 9,4 21 11 - - NW 1015,2 16 0,0
24.05.2019 10:00:00 17,2 9,4 21 11 - - WNW 1014,9 16 -
24.05.2019 09:00:00 17,2 9,4 18 10 - - NW 1014,3 16 -
24.05.2019 08:00:00 16,7 8,9 16 9 - - NW 1014,0 16 0,0
24.05.2019 07:00:00 15,6 8,3 15 8 - - WNW 1013,3 16 -
24.05.2019 06:00:00 16,1 8,3 26 14 - - WNW 1012,4 16 -
24.05.2019 05:00:00 16,7 10,6 16 9 - - WNW 1011,4 16 0,0
24.05.2019 04:00:00 17,8 9,4 9 5 - - WNW 1011,0 16 -
24.05.2019 03:00:00 18,3 10,6 11 6 - - WNW 1010,8 16 -
24.05.2019 02:00:00 20,0 10,6 16 9 - - WNW 1010,3 16 -
24.05.2019 01:00:00 21,1 11,7 18 10 - - WNW 1010,1 16 -
24.05.2019 00:00:00 20,6 17,8 13 7 - - SW 1010,5 16 -
23.05.2019 23:00:00 21,7 18,3 16 9 - - W 1010,2 16 -
23.05.2019 22:00:00 21,1 18,3 11 6 - - SW 1009,6 15 0,0
23.05.2019 21:00:00 22,2 18,3 11 6 - - WNW 1009,9 8 0,3
23.05.2019 20:00:00 23,3 17,8 15 8 - - SW 1009,8 15 -
23.05.2019 19:00:00 23,9 17,8 16 9 - - SW 1010,5 15 -
23.05.2019 18:00:00 23,9 18,9 18 10 - - W 1011,7 15 -
23.05.2019 17:00:00 21,7 18,3 9 5 - - SW 1012,2 15 -
23.05.2019 16:00:00 20,6 18,3 5 3 - - SSW 1014,4 13 0,0
23.05.2019 15:00:00 20,6 17,8 13 7 - - W 1015,3 13 2,0
23.05.2019 14:00:00 22,8 15,6 15 8 - - W 1015,3 16 1,5
23.05.2019 13:00:00 24,4 15,6 15 8 - - WSW 1016,1 16 -
23.05.2019 12:00:00 22,2 14,4 13 7 - - SW 1017,2 16 -
23.05.2019 11:00:00 20,0 13,9 15 8 - - SSW 1018,3 16 -
23.05.2019 10:00:00 17,8 12,8 8 4 - - - 1019,2 16 0,0
23.05.2019 09:00:00 16,1 12,2 9 5 - - SW 1020,2 16 -
23.05.2019 08:00:00 15,0 11,7 5 3 - - SW 1020,7 16 0,0
23.05.2019 07:00:00 14,4 12,2 8 4 - - SSW 1020,4 15 0,0
23.05.2019 06:00:00 13,9 11,7 9 5 - - SW 1020,3 16 0,0
23.05.2019 05:00:00 13,3 11,7 0 0 - - N 1020,5 16 5,6
23.05.2019 04:00:00 12,8 11,7 8 4 - - - 1021,3 4,8 5,6
23.05.2019 03:00:00 15,0 10,6 11 6 - - N 1021,7 8 0,3
23.05.2019 02:00:00 17,2 6,1 13 7 - - SW 1020,4 16 0,0
23.05.2019 01:00:00 17,2 6,7 5 3 - - S 1021,4 16 -
23.05.2019 00:00:00 17,2 6,1 11 6 - - SSW 1022,4 16 -
22.05.2019 23:00:00 18,3 6,1 11 6 - - S 1022,1 16 0,0
22.05.2019 22:00:00 18,9 5,6 8 4 - - - 1022,3 16 -
22.05.2019 21:00:00 18,9 5,6 5 3 - - - 1022,4 16 -
22.05.2019 20:00:00 18,3 6,1 0 0 - - N 1022,2 16 0,0
22.05.2019 19:00:00 20,6 4,4 0 0 - - N 1022,2 16 -
22.05.2019 18:00:00 21,7 1,1 0 0 - - N 1022,0 16 -
22.05.2019 17:00:00 21,7 -2,8 5 3 - - SSW 1022,7 16 0,0
22.05.2019 16:00:00 22,2 0,0 5 3 - - WSW 1023,2 16 -
22.05.2019 15:00:00 21,7 1,7 8 4 - - WNW 1023,0 16 -
22.05.2019 14:00:00 20,6 4,4 9 5 - - - 1024,0 16 0,0
22.05.2019 13:00:00 20,0 5,6 16 9 - - W 1024,0 16 -
22.05.2019 12:00:00 18,9 5,0 0 0 - - N 1024,4 16 -
22.05.2019 11:00:00 17,2 5,0 0 0 - - N 1025,3 16 0,0
22.05.2019 10:00:00 15,0 5,6 5 3 - - - 1025,5 16 -
22.05.2019 09:00:00 13,3 5,0 5 3 - - WNW 1024,9 16 -
22.05.2019 08:00:00 10,0 5,0 0 0 - - N 1024,6 16 0,0
22.05.2019 07:00:00 7,2 3,9 5 3 - - ESE 1024,0 16 -
22.05.2019 06:00:00 5,6 3,9 5 3 - - ESE 1023,4 16 -
22.05.2019 05:00:00 6,1 3,9 5 3 - - ESE 1022,7 16 0,0
22.05.2019 04:00:00 6,1 4,4 8 4 - - ESE 1022,1 16 -
22.05.2019 03:00:00 8,3 3,9 0 0 - - N 1021,9 16 -
22.05.2019 02:00:00 10,0 3,9 5 3 - - - 1021,7 16 0,0
22.05.2019 01:00:00 10,0 3,9 9 5 - - N 1021,5 16 -
22.05.2019 00:00:00 9,4 5,0 0 0 - - N 1021,0 16 -
21.05.2019 23:00:00 9,4 5,0 0 0 - - N 1020,9 16 0,0
21.05.2019 22:00:00 13,3 3,3 5 3 - - NW 1020,5 16 -
21.05.2019 21:00:00 14,4 2,8 15 8 - - NNW 1019,9 16 -
21.05.2019 20:00:00 16,1 3,3 21 11 - - NW 1018,8 16 0,0
21.05.2019 19:00:00 17,8 0,0 26 14 - - NNW 1017,8 16 -
21.05.2019 18:00:00 19,4 -1,1 29 16 - - N 1016,8 16 -
21.05.2019 17:00:00 20,0 1,1 34 18 50 27 N 1016,4 16 0,0
21.05.2019 16:00:00 20,0 3,3 26 14 - - NNW 1015,6 16 -
21.05.2019 15:00:00 19,4 3,9 28 15 50 27 N 1015,4 16 -
21.05.2019 14:00:00 19,4 5,0 34 18 48 26 NNW 1015,7 16 0,0
21.05.2019 13:00:00 17,8 4,4 22 12 - - NNW 1016,1 16 -
21.05.2019 12:00:00 16,1 4,4 24 13 - - WNW 1016,3 16 -
21.05.2019 11:00:00 15,0 4,4 13 7 - - NNW 1016,1 16 0,0
21.05.2019 10:00:00 13,3 4,4 16 9 - - NW 1016,5 16 -
21.05.2019 09:00:00 11,1 3,3 22 12 - - NNW 1016,3 16 -
21.05.2019 08:00:00 10,0 2,8 24 13 - - NW 1015,6 16 -
21.05.2019 07:00:00 10,0 3,9 22 12 - - NNW 1015,8 16 -
21.05.2019 06:00:00 10,6 4,4 22 12 - - NNW 1014,2 16 0,0
21.05.2019 05:00:00 11,7 5,0 18 10 - - NNW 1013,4 16 0,0
21.05.2019 04:00:00 12,2 5,0 15 8 - - NNW 1012,4 16 -
21.05.2019 03:00:00 13,3 5,6 21 11 - - NNW 1012,4 16 -
21.05.2019 02:00:00 14,4 6,1 31 17 - - NNW 1011,8 16 0,0
21.05.2019 01:00:00 15,0 7,2 11 6 - - WNW 1011,7 16 -
21.05.2019 00:00:00 15,6 7,8 16 9 - - WNW 1012,0 16 -
20.05.2019 23:00:00 17,2 9,4 24 13 - - NW 1011,4 16 0,0
20.05.2019 22:00:00 18,9 10,6 18 10 - - N 1010,3 16 -
20.05.2019 21:00:00 20,0 12,8 13 7 52 28 N 1008,4 16 -
20.05.2019 20:00:00 23,9 11,7 16 9 - - SW 1006,7 16 0,0
20.05.2019 19:00:00 25,6 11,7 21 11 48 26 WSW 1006,6 16 -
20.05.2019 18:00:00 25,6 12,8 24 13 - - WSW 1006,6 16 -
20.05.2019 17:00:00 26,7 13,3 26 14 50 27 W 1006,5 16 0,0
20.05.2019 16:00:00 27,2 12,8 34 18 57 31 WSW 1006,4 16 -
20.05.2019 15:00:00 25,6 16,1 29 16 52 28 WSW 1007,3 16 -
20.05.2019 14:00:00 24,4 17,2 26 14 - - W 1007,6 15 -
20.05.2019 13:00:00 23,3 17,2 21 11 - - SW 1008,3 15 -
20.05.2019 12:00:00 23,3 17,8 18 10 - - WSW 1008,8 15 0,0
20.05.2019 11:00:00 23,3 17,8 16 9 - - SW 1008,8 15 0,0
20.05.2019 10:00:00 23,3 18,3 18 10 - - WSW 1009,3 15 -
20.05.2019 09:00:00 22,2 17,8 11 6 - - WSW 1009,6 16 -
20.05.2019 08:00:00 20,0 17,8 9 5 - - SW 1010,0 15 -
20.05.2019 07:00:00 18,9 17,8 8 4 - - - 1009,9 11 1,3
20.05.2019 06:00:00 18,9 18,3 8 4 - - W 1009,7 4,0 0,5
20.05.2019 05:00:00 19,4 17,2 0 0 - - N 1009,3 15 0,0
20.05.2019 04:00:00 20,0 17,2 9 5 - - SW 1009,5 15 -
20.05.2019 03:00:00 20,0 17,8 9 5 - - SSW 1009,4 15 -
20.05.2019 02:00:00 19,4 18,3 5 3 - - - 1010,0 13 -
20.05.2019 01:00:00 20,6 17,8 9 5 - - - 1010,0 15 -
20.05.2019 00:00:00 20,6 18,3 8 4 - - - 1010,7 15 -
19.05.2019 23:00:00 19,4 18,9 0 0 - - N 1011,3 8 -
19.05.2019 22:00:00 20,0 18,9 0 0 - - N 1011,5 13 0,5
19.05.2019 21:00:00 19,4 18,3 5 3 - - - 1011,9 11 0,3
19.05.2019 20:00:00 19,4 18,3 5 3 61 33 WSW 1011,3 11 3,3
19.05.2019 19:00:00 19,4 17,2 9 5 61 33 S 1011,9 3,2 3,0
19.05.2019 18:00:00 28,9 17,8 21 11 - - SSW 1010,2 13 -

tt = temperature
td = dewpoint
ff = wind speed
fx = gusts
dd = wind direction
ppp = reduced air pressure
vv = visibility
rr = precipitation

Next stations